map of EFL home
Great Circle Mapper logo
EFL - Airport
Location
City:  Kefallinia Island, Ionía Nísia (Ionian Islands), Greece
Name:Argostolion
ICAO:LGKF
IATA:EFL

Details
Type:Airport (Aerodrome, Airfield)
Use:Public/Civil
Latitude:38°07'12"N (38.120069)
Longitude:20°30'02"E (20.500481)
Datum:WGS 1984
Elevation:59 ft (18 m)
Variation:3.90°E (WMM2015 magnetic declination)
0.10° annual change
Runways:1
Longest:7992 × 148 ft (2436 × 45 m), paved

Time
Time Zone:UTC+2 (DST+3)
Local Time:

Weather
METAR:LGKF 311050Z 27006KT 9999 FEW020 25/18 Q1016

Related Locations
Nearby:
Farthest:CHT: 11472 mi / 18462 km
Waitangi [Tuuta], Chatham Islands, NZ

Find:

   beyond  
but within

Other Information
Maps:
NOTAMs:
Links:
Sources:

  
flag of Greece   

Sectional Chart

Flight Planning
at skyvector.com

Satellite Image

Google Maps Satellite view

 

Copyright © 2004-2016 Karl L. Swartz. All rights reserved.
The Great Circle Mapper name and logo are trademarks of the Great Circle Mapper.
All other trademarks mentioned herein belong to their respective owners.
Please see credits for attibutions and further copyright information.

  Follow gcmap on Facebook Follow gcmap on Twitter Follow gcmap on Google+ GCmap on LinkedIn

hCard Microformat

Geo Microformat